Time,TemperatureF,DewpointF,PressureIn,WindDirection,WindDirectionDegrees,WindSpeedMPH,WindSpeedGustMPH,Humidity,HourlyPrecipIn,Conditions,Clouds,dailyrainin,SoftwareType,DateUTC
2013-03-14 17:41:00,22.9,12.5,29.77,WNW,302,4.6,4.6,64,0.00,CLR,FEW,0.00,WeatherDisplay:10.37,2013-03-14 21:41:00,
2013-03-14 17:42:00,22.9,12.5,29.77,WNW,302,4.6,4.6,64,0.00,CLR,FEW,0.00,WeatherDisplay:10.37,2013-03-14 21:42:00,
2013-03-14 17:43:00,23.0,13.0,29.78,NW,311,4.6,4.6,65,0.00,CLR,FEW,0.00,WeatherDisplay:10.37,2013-03-14 21:43:00,
2013-03-14 17:48:00,23.0,11.9,29.78,NW,323,3.5,3.5,62,0.00,CLR,FEW,0.00,WeatherDisplay:10.37,2013-03-14 21:48:00,
2013-03-14 17:53:00,23.0,13.3,29.78,WNW,294,8.1,8.1,66,0.00,CLR,FEW,0.00,WeatherDisplay:10.37,2013-03-14 21:53:00,
2013-03-14 17:58:00,22.9,11.8,29.78,NW,313,5.8,5.8,62,0.00,CLR,FEW,0.00,WeatherDisplay:10.37,2013-03-14 21:58:00,
2013-03-14 18:03:00,22.8,11.0,29.79,West,281,5.8,5.8,60,0.00,CLR,FEW,0.00,WeatherDisplay:10.37,2013-03-14 22:03:00,
2013-03-14 18:08:00,22.7,11.6,29.79,NW,309,6.0,6.0,62,0.00,CLR,FEW,0.00,WeatherDisplay:10.37,2013-03-14 22:08:00,
2013-03-14 18:13:00,22.5,10.7,29.79,WNW,292,5.8,5.8,60,0.00,CLR,FEW,0.00,WeatherDisplay:10.37,2013-03-14 22:13:00,
2013-03-14 18:18:00,22.3,9.7,29.79,West,277,8.1,8.1,58,0.00,CLR,FEW,0.00,WeatherDisplay:10.37,2013-03-14 22:18:00,
2013-03-14 18:23:00,22.2,10.4,29.80,NNW,327,5.0,5.0,60,0.00,CLR,FEW,0.00,WeatherDisplay:10.37,2013-03-14 22:23:00,
2013-03-14 18:28:00,22.1,10.3,29.80,NW,305,4.6,4.6,60,0.00,CLR,FEW,0.00,WeatherDisplay:10.37,2013-03-14 22:28:00,
2013-03-14 18:33:00,22.0,10.2,29.80,NNW,342,4.6,4.6,60,0.00,CLR,FEW,0.00,WeatherDisplay:10.37,2013-03-14 22:33:00,
2013-03-14 18:38:00,21.9,10.1,29.80,NNW,339,5.8,5.8,60,0.00,CLR,FEW,0.00,WeatherDisplay:10.37,2013-03-14 22:38:00,
2013-03-14 18:43:00,21.8,9.7,29.81,WNW,302,9.2,9.2,59,0.00,CLR,FEW,0.00,WeatherDisplay:10.37,2013-03-14 22:43:00,
2013-03-14 18:48:00,21.6,10.6,29.81,NNE,31,3.5,3.5,62,0.00,CLR,FEW,0.00,WeatherDisplay:10.37,2013-03-14 22:48:00,
2013-03-14 18:53:00,21.4,10.0,29.81,NW,306,4.0,4.0,61,0.00,CLR,FEW,0.00,WeatherDisplay:10.37,2013-03-14 22:53:00,
2013-03-14 18:58:00,21.4,10.0,29.82,WNW,296,4.0,4.0,61,0.00,CLR,FEW,0.00,WeatherDisplay:10.37,2013-03-14 22:58:00,
2013-03-14 19:03:00,21.1,10.1,29.82,SSW,194,6.9,6.9,62,0.00,CLR,FEW,0.00,WeatherDisplay:10.37,2013-03-14 23:03:00,
2013-03-14 19:08:00,20.8,8.7,29.82,WNW,290,5.8,5.8,59,0.00,CLR,FEW,0.00,WeatherDisplay:10.37,2013-03-14 23:08:00,
2013-03-14 19:13:00,20.5,8.4,29.83,NW,311,9.2,9.2,59,0.00,CLR,FEW,0.00,WeatherDisplay:10.37,2013-03-14 23:13:00,
2013-03-14 19:18:00,20.2,8.1,29.83,NW,315,4.6,4.6,59,0.00,CLR,FEW,0.00,WeatherDisplay:10.37,2013-03-14 23:18:00,
2013-03-14 19:23:00,20.0,7.6,29.83,NNW,327,5.8,5.8,58,0.00,CLR,FEW,0.00,WeatherDisplay:10.37,2013-03-14 23:23:00,
2013-03-14 19:28:00,19.8,7.4,29.83,NW,314,9.2,9.2,58,0.00,CLR,FEW,0.00,WeatherDisplay:10.37,2013-03-14 23:28:00,
2013-03-14 19:33:00,19.6,7.6,29.84,WNW,298,6.9,6.9,59,0.00,CLR,FEW,0.00,WeatherDisplay:10.37,2013-03-14 23:33:00,
2013-03-14 19:38:00,19.3,7.7,29.84,NNW,327,9.2,9.2,60,0.00,CLR,FEW,0.00,WeatherDisplay:10.37,2013-03-14 23:38:00,
2013-03-14 19:43:00,19.1,7.8,29.84,NW,323,8.1,8.1,61,0.00,CLR,FEW,0.00,WeatherDisplay:10.37,2013-03-14 23:43:00,
2013-03-14 19:48:00,19.0,8.1,29.84,WNW,300,3.0,3.0,62,0.00,CLR,FEW,0.00,WeatherDisplay:10.37,2013-03-14 23:48:00,
2013-03-14 19:53:00,18.9,7.7,29.84,WNW,302,5.8,5.8,61,0.00,CLR,FEW,0.00,WeatherDisplay:10.37,2013-03-14 23:53:00,
2013-03-14 19:58:00,18.8,7.9,29.84,NW,307,5.0,5.0,62,0.00,CLR,FEW,0.00,WeatherDisplay:10.37,2013-03-14 23:58:00,
2013-03-14 20:03:00,18.6,7.7,29.85,NNW,328,4.0,4.0,62,0.00,CLR,FEW,0.00,WeatherDisplay:10.37,2013-03-15 00:03:00,
2013-03-14 20:08:00,18.6,7.7,29.85,WNW,289,5.0,5.0,62,0.00,CLR,FEW,0.00,WeatherDisplay:10.37,2013-03-15 00:08:00,
2013-03-14 20:13:00,18.5,8.3,29.85,WNW,297,3.5,3.5,64,0.00,CLR,FEW,0.00,WeatherDisplay:10.37,2013-03-15 00:13:00,
2013-03-14 20:18:00,18.4,7.9,29.85,WNW,296,9.2,9.2,63,0.00,CLR,FEW,0.00,WeatherDisplay:10.37,2013-03-15 00:18:00,
2013-03-14 20:23:00,18.4,7.9,29.85,NW,316,2.3,2.3,63,0.00,CLR,FEW,0.00,WeatherDisplay:10.37,2013-03-15 00:23:00,
2013-03-14 20:28:00,18.3,7.8,29.85,NNW,341,9.2,9.2,63,0.00,CLR,FEW,0.00,WeatherDisplay:10.37,2013-03-15 00:28:00,
2013-03-14 20:33:00,18.3,7.8,29.85,NW,304,3.5,3.5,63,0.00,CLR,FEW,0.00,WeatherDisplay:10.37,2013-03-15 00:33:00,
2013-03-14 20:38:00,18.2,8.1,29.85,NW,304,5.8,5.8,64,0.00,CLR,FEW,0.00,WeatherDisplay:10.37,2013-03-15 00:38:00,
2013-03-14 20:43:00,18.2,8.1,29.85,WNW,297,4.0,4.0,64,0.00,CLR,FEW,0.00,WeatherDisplay:10.37,2013-03-15 00:43:00,
2013-03-14 20:48:00,18.1,8.0,29.85,WNW,293,3.5,3.5,64,0.00,CLR,FEW,0.00,WeatherDisplay:10.37,2013-03-15 00:48:00,
2013-03-14 20:53:00,18.1,8.3,29.85,WNW,294,3.5,3.5,65,0.00,CLR,FEW,0.00,WeatherDisplay:10.37,2013-03-15 00:53:00,
2013-03-14 20:58:00,18.0,8.5,29.85,WNW,302,4.0,4.0,66,0.00,CLR,FEW,0.00,WeatherDisplay:10.37,2013-03-15 00:58:00,
2013-03-14 21:03:00,17.9,8.8,29.85,NW,323,4.0,4.0,67,0.00,CLR,FEW,0.00,WeatherDisplay:10.37,2013-03-15 01:03:00,
2013-03-14 21:08:00,17.9,8.8,29.85,NW,325,2.3,2.3,67,0.00,CLR,FEW,0.00,WeatherDisplay:10.37,2013-03-15 01:08:00,
2013-03-14 21:13:00,17.8,8.7,29.85,NW,319,0.0,0.0,67,0.00,CLR,FEW,0.00,WeatherDisplay:10.37,2013-03-15 01:13:00,
2013-03-14 21:18:00,17.7,8.6,29.85,WNW,296,3.5,3.5,67,0.00,CLR,FEW,0.00,WeatherDisplay:10.37,2013-03-15 01:18:00,
2013-03-14 21:23:00,17.7,8.6,29.85,WNW,292,3.5,3.5,67,0.00,CLR,FEW,0.00,WeatherDisplay:10.37,2013-03-15 01:23:00,
2013-03-14 21:28:00,17.7,8.6,29.85,NW,319,1.2,1.2,67,0.00,CLR,FEW,0.00,WeatherDisplay:10.37,2013-03-15 01:28:00,
2013-03-14 21:33:00,17.6,8.8,29.85,WNW,301,2.3,2.3,68,0.00,CLR,FEW,0.00,WeatherDisplay:10.37,2013-03-15 01:33:00,
2013-03-14 21:38:00,17.5,8.7,29.85,NW,306,3.5,3.5,68,0.00,CLR,FEW,0.00,WeatherDisplay:10.37,2013-03-15 01:38:00,
2013-03-14 21:43:00,17.5,8.7,29.85,WNW,298,2.3,2.3,68,0.00,CLR,FEW,0.00,WeatherDisplay:10.37,2013-03-15 01:43:00,
2013-03-14 21:49:00,17.5,9.1,29.85,NW,306,3.5,3.5,69,0.00,CLR,FEW,0.00,WeatherDisplay:10.37,2013-03-15 01:49:00,
2013-03-14 21:53:00,17.4,9.3,29.85,NW,306,1.2,1.2,70,0.00,CLR,FEW,0.00,WeatherDisplay:10.37,2013-03-15 01:53:00,
2013-03-14 21:58:00,17.4,9.3,29.85,WNW,294,3.5,3.5,70,0.00,CLR,FEW,0.00,WeatherDisplay:10.37,2013-03-15 01:58:00,
2013-03-14 22:03:00,17.4,9.0,29.85,West,278,2.3,2.3,69,0.00,CLR,FEW,0.00,WeatherDisplay:10.37,2013-03-15 02:03:00,
2013-03-14 22:08:00,17.4,9.3,29.86,NW,309,3.5,3.5,70,0.00,CLR,FEW,0.00,WeatherDisplay:10.37,2013-03-15 02:08:00,
2013-03-14 22:13:00,17.4,9.3,29.86,NW,313,4.0,4.0,70,0.00,CLR,FEW,0.00,WeatherDisplay:10.37,2013-03-15 02:13:00,
2013-03-14 22:18:00,17.4,9.3,29.85,WNW,282,1.2,1.2,70,0.00,CLR,FEW,0.00,WeatherDisplay:10.37,2013-03-15 02:18:00,
2013-03-14 22:23:00,17.4,9.3,29.85,WNW,293,3.5,3.5,70,0.00,CLR,FEW,0.00,WeatherDisplay:10.37,2013-03-15 02:23:00,
2013-03-14 22:28:00,17.3,9.5,29.85,WNW,290,2.3,2.3,71,0.00,CLR,FEW,0.00,WeatherDisplay:10.37,2013-03-15 02:28:00,
2013-03-14 22:33:00,17.3,9.5,29.85,NW,308,6.9,6.9,71,0.00,CLR,FEW,0.00,WeatherDisplay:10.37,2013-03-15 02:33:00,
2013-03-14 22:38:00,17.3,9.5,29.85,WNW,302,3.5,3.5,71,0.00,CLR,FEW,0.00,WeatherDisplay:10.37,2013-03-15 02:38:00,
2013-03-14 22:43:00,17.3,9.5,29.85,WNW,302,3.5,3.5,71,0.00,CLR,FEW,0.00,WeatherDisplay:10.37,2013-03-15 02:43:00,
2013-03-14 22:48:00,17.2,9.7,29.85,NW,322,3.5,3.5,72,0.00,CLR,FEW,0.00,WeatherDisplay:10.37,2013-03-15 02:48:00,
2013-03-14 22:53:00,17.2,9.7,29.85,WNW,300,3.5,3.5,72,0.00,CLR,FEW,0.00,WeatherDisplay:10.37,2013-03-15 02:53:00,
2013-03-14 22:58:00,17.1,9.9,29.85,NW,305,4.6,4.6,73,0.00,CLR,FEW,0.00,WeatherDisplay:10.37,2013-03-15 02:58:00,
2013-03-14 23:03:00,17.2,10.3,29.85,SE,142,3.5,3.5,74,0.00,CLR,FEW,0.00,WeatherDisplay:10.37,2013-03-15 03:03:00,
2013-03-14 23:08:00,17.2,10.3,29.85,WNW,288,2.3,2.3,74,0.00,CLR,FEW,0.00,WeatherDisplay:10.37,2013-03-15 03:08:00,
2013-03-14 23:13:00,17.2,10.3,29.85,NW,325,2.3,2.3,74,0.00,CLR,FEW,0.00,WeatherDisplay:10.37,2013-03-15 03:13:00,
2013-03-14 23:18:00,17.2,10.3,29.85,WNW,291,1.2,1.2,74,0.00,CLR,FEW,0.00,WeatherDisplay:10.37,2013-03-15 03:18:00,
2013-03-14 23:23:00,17.2,10.3,29.85,NW,306,3.5,3.5,74,0.00,CLR,FEW,0.00,WeatherDisplay:10.37,2013-03-15 03:23:00,
2013-03-14 23:28:00,17.3,10.7,29.85,NW,312,3.5,3.5,75,0.00,CLR,FEW,0.00,WeatherDisplay:10.37,2013-03-15 03:28:00,
2013-03-14 23:33:00,17.3,10.7,29.85,NW,312,1.2,1.2,75,0.00,CLR,FEW,0.00,WeatherDisplay:10.37,2013-03-15 03:33:00,
2013-03-14 23:38:00,17.3,10.7,29.85,WNW,302,2.3,0.0,75,0.00,CLR,FEW,0.00,WeatherDisplay:10.37,2013-03-15 03:38:00,
2013-03-14 23:43:00,17.3,10.7,29.85,WNW,288,3.5,3.5,75,0.00,CLR,FEW,0.00,WeatherDisplay:10.37,2013-03-15 03:43:00,
2013-03-14 23:48:00,17.3,11.0,29.85,North,350,1.2,1.2,76,0.00,CLR,FEW,0.00,WeatherDisplay:10.37,2013-03-15 03:48:00,
2013-03-14 23:53:00,17.3,11.0,29.85,WNW,283,3.5,3.5,76,0.00,CLR,FEW,0.00,WeatherDisplay:10.37,2013-03-15 03:53:00,
2013-03-14 23:58:00,17.3,11.0,29.85,NNW,333,3.5,3.5,76,0.00,CLR,FEW,0.00,WeatherDisplay:10.37,2013-03-15 03:58:00,